Location: Bishop�s Knoyle
(51.0728°N, 2.1714°W)
Time: 05:43:59
(UTC+00:00)

CENTAUR R/B - Pass Details

Date: 18 January 2021
Orbit: 742 x 1446 km, 63.5° (Epoch: 02 March)

Event Time Altitude Azimuth Distance (km) Brightness Sun altitude
Rises 18:07:47 0° 309° (NW) 4,268 6.4 -14.0°
Reaches altitude 10° 18:11:52 10° 289° (WNW) 3,402 6.2 -14.6°
Maximum altitude 18:16:27 16° 256° (WSW) 3,040 6.3 -15.3°
Drops below altitude 10° 18:21:12 10° 223° (SW) 3,540 6.3 -16.0°
Sets 18:25:38 0° 204° (SSW) 4,529 6.5 -16.7°
